YO8CLN-10 Weather Reports


time (UTC)temp
F
wind
direction
speed
knots
gust
knots
rain 1hr
in
rain 24hr
in
rain mn
in
humidity
%
barometer
mb
20260508033346 50 270 0.0 1.7 0.00 0.00 0.00 86 1111.0
20260508032947 50 270 1.7 1.7 0.00 0.00 0.00 86 1111.0
20260508032345 50 270 0.0 0.0 0.00 0.00 0.00 86 1111.0
20260508031345 50 270 0.0 0.0 0.00 0.00 0.00 85 1111.0
20260508031046 50 270 0.0 0.0 0.00 0.00 0.00 85 1111.0
20260508030344 50 270 0.0 0.0 0.00 0.00 0.00 85 1111.0
20260508025344 50 270 0.0 0.0 0.00 0.00 0.00 85 1111.0
20260508025145 50 270 0.0 0.0 0.00 0.00 0.00 85 1111.0
20260508024343 50 270 0.0 0.0 0.00 0.00 0.00 85 1111.0
20260508023342 50 270 0.0 0.0 0.00 0.00 0.00 85 1111.0
20260508023244 50 270 0.0 0.0 0.00 0.00 0.00 85 1111.0
20260508022342 50 270 0.0 0.0 0.00 0.00 0.00 85 1111.0
20260508021341 50 270 0.0 0.0 0.00 0.00 0.00 85 1111.0
20260508020341 50 270 0.0 0.0 0.00 0.00 0.00 85 1111.0
20260508015441 50 270 0.0 0.0 0.00 0.00 0.00 85 1111.0
20260508015340 50 270 0.0 0.0 0.00 0.00 0.00 85 1111.0
20260508014340 50 270 0.0 0.0 0.00 0.00 0.00 85 1111.0
20260508013540 50 270 0.0 0.0 0.00 0.00 0.00 84 1111.0
20260508013339 50 270 0.0 0.0 0.00 0.00 0.00 84 1111.0
20260508012338 50 270 0.0 0.0 0.00 0.00 0.00 84 1111.0
20260508011639 50 270 0.0 0.0 0.00 0.00 0.00 84 1111.0
20260508011338 50 270 0.0 0.0 0.00 0.00 0.00 85 1111.0
20260508010337 50 270 0.0 0.0 0.00 0.00 0.00 85 1111.0
20260508005739 50 270 0.0 0.0 0.00 0.00 0.00 85 1111.0
20260508005337 50 270 0.0 0.0 0.00 0.00 0.00 85 1111.0
20260508004336 50 270 0.0 0.0 0.00 0.00 0.00 85 1111.0
20260508003837 50 270 0.0 0.0 0.00 0.00 0.00 85 1111.0
20260508003336 50 270 0.0 0.0 0.00 0.00 0.00 84 1111.0
20260508002335 50 270 0.0 0.0 0.00 0.00 0.00 84 1111.0
20260508001936 50 270 0.0 0.0 0.00 0.00 0.00 84 1111.0
20260508001334 50 270 0.0 0.0 0.00 0.00 0.00 84 1111.0
20260508000334 50 270 0.0 0.0 0.00 0.00 0.00 84 1111.0
20260508000035 50 270 0.0 0.0 0.00 0.00 0.00 84 1111.0
20260507235333 50 270 0.0 0.0 0.00 0.00 0.00 84 1111.0
20260507234333 50 270 0.0 0.0 0.00 0.00 0.00 84 1111.0
20260507233332 50 270 0.0 0.0 0.00 0.00 0.00 84 1111.0
20260507232331 50 270 0.0 0.0 0.00 0.00 0.00 84 1111.0
20260507232233 50 270 0.0 0.0 0.00 0.00 0.00 84 1111.0
20260507231331 50 270 0.0 0.0 0.00 0.00 0.00 84 1111.0
20260507230330 50 270 0.0 0.0 0.00 0.00 0.00 83 1111.0
20260507225330 50 270 0.0 0.0 0.00 0.00 0.00 83 1111.0
20260507224329 50 270 0.0 0.0 0.00 0.00 0.00 82 1111.0
20260507223329 50 270 0.0 0.0 0.00 0.00 0.00 82 1111.0
20260507222328 50 270 0.0 0.0 0.00 0.00 0.00 82 1111.0
20260507221327 50 270 0.0 0.0 0.00 0.00 0.00 82 1111.0
20260507220327 50 270 0.0 0.0 0.00 0.00 0.00 82 1111.0
20260507215326 51 270 0.0 0.0 0.00 0.00 0.00 82 1111.0
20260507214326 51 270 0.0 0.0 0.00 0.00 0.00 82 1111.0
20260507213325 51 270 0.0 0.0 0.00 0.00 0.00 82 1111.0
20260507212325 51 270 0.0 0.0 0.00 0.00 0.00 81 1111.0
20260507211324 51 270 0.0 0.0 0.00 0.00 0.00 81 1111.0
20260507210323 51 270 0.0 0.0 0.00 0.00 0.00 81 1111.0
20260507205323 51 270 0.0 0.0 0.00 0.00 0.00 81 1111.0
20260507204322 51 270 0.0 0.0 0.00 0.00 0.00 81 1111.0
20260507203322 51 270 0.0 0.0 0.00 0.00 0.00 81 1111.0
20260507202321 51 270 0.0 0.0 0.00 0.00 0.00 80 1111.0
20260507201321 51 270 0.0 0.0 0.00 0.00 0.00 80 1111.0
20260507200320 52 270 0.0 0.0 0.00 0.00 0.00 79 1111.0
20260507195320 52 270 0.0 0.0 0.00 0.00 0.00 80 1111.0
20260507194319 52 270 0.0 0.0 0.00 0.00 0.00 79 1111.0
20260507193319 52 270 0.0 0.0 0.00 0.00 0.00 78 1111.0
20260507192318 52 270 0.0 0.0 0.00 0.00 0.00 78 1111.0
20260507191317 52 270 0.0 0.0 0.00 0.00 0.00 78 1111.0
20260507190317 53 270 0.0 0.0 0.00 0.00 0.00 76 1111.0
20260507185316 53 270 0.0 0.0 0.00 0.00 0.00 76 1111.0
20260507184316 54 270 0.0 0.0 0.00 0.00 0.00 76 1111.0
20260507183315 54 270 0.0 0.0 0.00 0.00 0.00 75 1111.0
20260507182314 54 270 0.0 0.0 0.00 0.00 0.00 74 1111.0
20260507181314 55 270 0.0 0.0 0.00 0.00 0.00 74 1111.0
20260507180313 55 270 0.0 0.0 0.00 0.00 0.00 72 1111.0
20260507175313 55 270 0.0 0.0 0.00 0.00 0.00 72 1111.0
20260507174312 56 270 0.0 0.0 0.00 0.00 0.00 71 1111.0
20260507173312 56 270 0.0 0.0 0.00 0.00 0.00 70 1111.0
20260507172311 57 270 0.0 0.0 0.00 0.00 0.00 68 1111.0
20260507171310 57 270 0.0 0.0 0.00 0.00 0.00 67 1111.0
20260507170310 59 270 0.0 0.0 0.00 0.00 0.00 64 1111.0
20260507165309 60 270 0.0 0.9 0.00 0.00 0.00 63 1111.0
20260507164309 62 292 0.0 0.0 0.00 0.00 0.00 55 1111.0
20260507163308 63 270 3.5 3.5 0.00 0.00 0.00 55 1111.0
20260507162308 66 202 8.7 13.9 0.00 0.00 0.00 53 1111.0
20260507161307 69 202 0.9 0.9 0.00 0.00 0.00 48 1111.0
20260507160306 69 0 0.0 0.0 0.00 0.00 0.00 47 1111.0
20260507155306 71 0 0.0 0.0 0.00 0.00 0.00 46 1111.0
20260507154305 70 135 0.0 0.0 0.00 0.00 0.00 48 1111.0
20260507153305 69 135 0.9 1.7 0.00 0.00 0.00 48 1111.0
20260507152306 68 157 1.7 1.7 0.00 0.00 0.00 48 1111.0
20260507151303 68 202 1.7 3.5 0.00 0.00 0.00 47 1111.0
20260507150303 68 202 0.9 0.9 0.00 0.00 0.00 47 1111.0
20260507145306 68 270 0.9 0.9 0.00 0.00 0.00 46 1111.0
20260507144905 68 270 0.0 2.6 0.00 0.00 0.00 46 1111.0
20260507144302 69 270 2.6 4.3 0.00 0.00 0.00 45 1111.0
20260507143301 70 292 0.0 0.9 0.00 0.00 0.00 44 1111.0
20260507142301 71 315 0.9 2.6 0.00 0.00 0.00 43 1111.0
20260507141300 73 270 3.5 3.5 0.00 0.00 0.00 42 1111.0
20260507140259 75 292 0.0 1.7 0.00 0.00 0.00 40 1111.0
20260507135259 77 315 0.9 4.3 0.00 0.00 0.00 39 1111.0
20260507134258 76 337 0.0 0.0 0.00 0.00 0.00 41 1111.0
20260507133258 74 292 1.7 1.7 0.00 0.00 0.00 41 1111.0
20260507132257 74 180 0.0 1.7 0.00 0.00 0.00 40 1111.0
20260507131257 75 270 0.0 3.5 0.00 0.00 0.00 39 1111.0
20260507130256 75 270 1.7 1.7 0.00 0.00 0.00 39 1111.0
20260507125255 76 0 0.0 3.5 0.00 0.00 0.00 38 1111.0
20260507124255 77 292 1.7 4.3 0.00 0.00 0.00 37 1111.0
20260507123254 78 315 5.2 7.8 0.00 0.00 0.00 38 1111.0
20260507122254 78 67 0.0 4.3 0.00 0.00 0.00 40 1111.0
20260507121253 77 270 0.9 3.5 0.00 0.00 0.00 40 1111.0
20260507120253 76 270 1.7 6.1 0.00 0.00 0.00 40 1111.0
20260507115252 77 270 2.6 2.6 0.00 0.00 0.00 38 1111.0
20260507114251 77 315 2.6 2.6 0.00 0.00 0.00 38 1111.0
20260507113251 76 22 0.9 0.9 0.00 0.00 0.00 38 1111.0
20260507112250 75 315 0.0 3.5 0.00 0.00 0.00 38 1111.0
20260507111250 75 315 0.0 2.6 0.00 0.00 0.00 38 1111.0
20260507110249 76 22 3.5 3.5 0.00 0.00 0.00 37 1111.0
20260507105249 75 337 1.7 1.7 0.00 0.00 0.00 39 1111.0
20260507104248 75 202 2.6 2.6 0.00 0.00 0.00 39 1111.0
20260507103247 74 180 0.9 2.6 0.00 0.00 0.00 38 1111.0
20260507102247 74 247 0.0 0.0 0.00 0.00 0.00 38 1111.0
20260507101246 76 337 3.5 3.5 0.00 0.00 0.00 38 1111.0
20260507100246 78 315 0.9 1.7 0.00 0.00 0.00 36 1111.0
20260507095245 79 0 0.0 3.5 0.00 0.00 0.00 36 1111.0
20260507094245 78 247 0.0 7.0 0.00 0.00 0.00 38 1111.0
20260507093244 77 202 4.3 4.3 0.00 0.00 0.00 38 1111.0
20260507092243 75 135 0.0 0.9 0.00 0.00 0.00 39 1111.0
20260507091243 75 112 0.0 2.6 0.00 0.00 0.00 40 1111.0
20260507090242 75 22 2.6 3.5 0.00 0.00 0.00 40 1111.0
20260507085822 76 22 0.0 1.7 0.00 0.00 0.00 40 1111.0
20260507085242 76 67 0.0 0.0 0.00 0.00 0.00 40 1111.0
20260507084241 77 315 1.7 3.5 0.00 0.00 0.00 41 1111.0
20260507083240 76 315 1.7 1.7 0.00 0.00 0.00 42 1111.0
20260507082240 75 292 0.0 1.7 0.00 0.00 0.00 44 1111.0
20260507081239 74 270 0.0 1.7 0.00 0.00 0.00 45 1111.0
20260507080239 73 67 0.0 4.3 0.00 0.00 0.00 47 1111.0
20260507075238 71 67 0.0 0.9 0.00 0.00 0.00 49 1111.0
20260507074238 70 0 0.9 1.7 0.00 0.00 0.00 51 1111.0
20260507073237 68 315 0.0 0.0 0.00 0.00 0.00 53 1111.0
20260507072236 68 315 0.0 0.0 0.00 0.00 0.00 55 1111.0
20260507071236 67 315 0.9 1.7 0.00 0.00 0.00 57 1111.0
20260507070235 65 0 1.7 1.7 0.00 0.00 0.00 58 1111.0
20260507065235 63 90 0.9 1.7 0.00 0.00 0.00 59 1111.0
20260507064234 62 90 0.0 0.0 0.00 0.00 0.00 61 1111.0
20260507063447 61 90 0.0 0.0 0.00 0.00 0.00 61 1111.0
20260507063234 61 90 0.0 0.0 0.00 0.00 0.00 61 1111.0
20260507062233 59 90 0.9 0.9 0.00 0.00 0.00 65 1111.0
20260507061232 57 180 0.0 0.0 0.00 0.00 0.00 67 1111.0
20260507060232 55 180 0.0 0.0 0.00 0.00 0.00 69 1111.0
20260507055231 53 180 0.0 0.0 0.00 0.00 0.00 70 1111.0
20260507054231 52 180 0.0 0.0 0.00 0.00 0.00 71 1111.0
20260507053230 51 180 0.0 0.0 0.00 0.00 0.00 71 1111.0
20260507052230 51 180 0.9 0.9 0.00 0.00 0.00 71 1111.0
20260507051229 50 180 0.0 0.0 0.00 0.00 0.00 72 1111.0
20260507050228 50 180 0.0 0.0 0.00 0.00 0.00 72 1111.0
20260507045228 49 180 0.0 0.0 0.00 0.00 0.00 73 1111.0
20260507044227 48 180 0.0 0.9 0.00 0.00 0.00 74 1111.0
20260507043227 48 180 1.7 1.7 0.00 0.00 0.00 74 1111.0
20260507042226 47 180 0.0 0.0 0.00 0.00 0.00 75 1111.0
20260507041226 46 180 0.0 0.0 0.00 0.00 0.00 78 1111.0
20260507040225 44 180 0.0 0.0 0.00 0.00 0.00 81 1111.0
20260507035224 39 180 0.0 0.0 0.00 0.00 0.00 82 1111.0